Simultaneous Nadir Overpasses (SNOs) Predictions

Prediction of SNOs between NOAA-19 and METOP-C Satellite Orbit:

Table of predicted SNOs for the next 14.0 days since TLE Epoch: 9/21/2024
Index Date (NOAA-19) Time (NOAA-19) Lat,Lon (NOAA-19) SZA (NOAA-19 ) Date (METOP-C) Time (METOP-C) Lat,Lon (METOP-C) SZA (METOP-C ) Distance(km) Time Diff (sec)
1 09/29/2024 05:34:15 -67.28, -99.76 109.56 09/29/2024 05:35:26 -67.29, -99.74 109.58 1.69 71
2 09/29/2024 06:24:43 68.56, 69.19 71.57 09/29/2024 06:25:42 68.56, 69.17 71.55 0.61 59
3 09/29/2024 07:15:20 -70.05,-121.39 107.11 09/29/2024 07:15:56 -70.05,-121.39 107.12 0.21 36
4 09/29/2024 08:05:53 71.04, 47.56 73.81 09/29/2024 08:06:17 71.03, 47.52 73.79 2.02 24
5 09/29/2024 08:56:37 -72.12,-143.18 105.19 09/29/2024 08:56:38 -72.11,-143.22 105.21 2.44 1
6 09/29/2024 09:47:27 72.24, 24.35 74.93 09/29/2024 09:47:15 72.26, 24.40 74.95 2.42 12
7 09/29/2024 10:38:11 -73.29,-166.13 104.07 09/29/2024 10:37:36 -73.30,-166.10 104.06 1.58 35
8 09/29/2024 11:28:53 73.80, 2.38 76.44 09/29/2024 11:28:06 73.80, 2.39 76.44 0.25 47



Historial Predications of SNOs between NOAA-19 and METOP-C
